#timestamp,LO_Frequency,Hit,StdDev 
1524398415.6,286047002.4,N
1524398435.5,286047002.3,N
1524398455.3,286047002.7,N
1524398475.1,286047004.3,N
1524398495.9,286047011.9,Y
1524398515.7,286047002.3,P
1524398535.6,286047001.1,N
1524398555.4,286047000.8,N
1524398575.2,286046999.3,N
1524398595.1,286046998.4,N
1524398596.0,286046998.4,N
1524398615.8,286046998.1,N
1524398635.7,286047000.9,N
1524398655.5,286047002.4,N
1524398675.3,286047000.0,N
1524398695.2,286046999.7,N
1524398715.9,286046999.9,N
1524398735.7,286047000.5,N
1524398755.6,286047000.5,N
1524398775.4,286047000.5,N
1524398795.2,286047000.2,N
1524398815.1,286047000.4,N
1524398816.0,286047000.4,N
1524398835.8,286046999.9,N
1524398855.7,286047002.7,N
1524398875.5,286047002.8,N
1524398895.3,286047002.3,N
1524398915.2,286047002.5,N
1524398935.0,286047002.6,N
1524398935.9,286047002.6,N
1524398955.8,286047002.5,N
1524398975.6,286047000.3,N
1524398995.4,286047000.3,N
1524399015.3,286047002.7,N
1524399035.1,286047000.7,N
1524399055.8,286046998.6,N
1524399075.7,286046999.6,N
1524399095.5,286046996.6,N
1524399115.4,286046998.3,N
1524399135.2,286047000.1,N
1524399155.0,286047002.4,N
1524399155.9,286047002.4,N
1524399175.8,286047001.9,N
1524399195.6,286047002.8,N
1524399215.4,286047002.7,N
1524399235.3,286047002.3,N
1524399255.1,286047002.2,N
1524399275.9,286047002.8,N
1524399295.7,286047002.4,N
1524399315.5,286047002.3,N
1524399335.4,286047000.1,N
1524399355.2,286047000.0,N
1524399375.1,286047001.1,N
1524399376.0,286047001.1,N
1524399395.8,286047000.8,N
1524399415.6,286046999.8,N
1524399435.5,286047002.7,N
1524399455.3,286047002.2,N
1524399475.1,286047001.9,N
1524399495.9,286047003.9,N
1524399515.7,286047001.3,N
1524399535.6,286047001.5,N
1524399555.4,286047011.9,Y
1524399575.2,286047003.7,P
1524399595.1,286047002.2,N
1524399596.0,286047002.2,N
1524399615.8,286047002.1,N
1524399635.7,286047002.5,Y
1524399655.5,286046998.2,P
1524399675.3,286046998.6,N
1524399695.2,286046996.5,N
1524399715.0,286046999.5,N
1524399715.9,286046999.5,N
1524399735.7,286046998.9,N
1524399755.6,286046998.8,N
1524399775.4,286046999.9,N
1524399795.3,286047003.9,N
1524399815.1,286046999.8,N
1524399816.0,286046999.8,N
1524399835.8,286046997.0,N
1524399855.7,286047001.0,N
1524399875.5,286047011.2,Y
1524399895.4,286047013.8,P
1524399915.2,286047010.1,N
1524399935.0,286047007.4,N
1524399935.9,286047007.4,N
1524399955.8,286047005.2,N
1524399975.6,286047002.0,N
1524399995.5,286047000.9,N
1524400015.3,286046998.8,N
1524400035.1,286046998.6,N
1524400055.9,286046998.5,N
1524400075.7,286046998.7,N
1524400095.5,286047013.0,N
1524400115.4,286047014.3,N
1524400135.2,286047013.8,N
1524400155.1,286047010.6,N
1524400156.0,286047010.6,N
1524400175.8,286047007.6,N
1524400195.6,286047003.4,N
1524400215.5,286047002.3,N
1524400235.3,286046999.9,N
1524400255.1,286046998.9,N
1524400275.9,286046998.7,N
1524400295.7,286046999.3,N
1524400315.6,286046999.6,N
1524400335.4,286047004.9,N
1524400355.2,286047007.3,N
1524400375.1,286046999.9,N
1524400376.0,286046999.9,N
1524400395.8,286046999.3,N
1524400415.6,286046997.5,N
1524400435.5,286046997.0,N
1524400455.3,286046997.6,N
1524400475.2,286046995.8,N
1524400495.9,286046995.7,N
1524400515.7,286046994.0,N
1524400535.6,286046992.3,N
1524400555.4,286046995.9,N
1524400575.2,286047003.3,N
1524400595.1,286047004.1,N
1524400596.0,286047004.1,N
1524400615.8,286047000.5,N
1524400635.7,286046999.3,N
1524400655.5,286046997.2,N
1524400675.3,286046995.2,N
1524400695.2,286046994.7,N
1524400715.0,286046991.9,N
1524400715.9,286046991.9,N
1524400735.8,286046992.0,N
1524400755.6,286046997.6,N
1524400775.4,286047000.3,N
1524400795.3,286047005.5,N
1524400815.1,286047004.9,N
1524400835.8,286047007.4,N
1524400855.7,286047005.1,N
1524400875.5,286047005.5,N
1524400895.4,286047003.4,N
1524400915.2,286047003.0,N
1524400935.0,286047004.3,N
1524400935.9,286047004.3,N
1524400955.8,286047001.7,N
1524400975.6,286046999.7,N
1524400995.4,286047000.7,N
1524401015.3,286046998.3,N
1524401035.1,286046999.1,N
1524401055.9,286046999.6,N
1524401075.7,286046996.7,N
1524401095.5,286046995.3,N
1524401115.4,286046995.4,N
1524401135.2,286046995.0,N
1524401155.0,286046995.9,N
1524401155.9,286046995.9,N
1524401175.8,286046994.2,N
1524401195.6,286046992.4,N
1524401215.5,286046992.8,N
1524401235.3,286046992.8,N
1524401255.1,286046991.4,N
1524401275.9,286046988.9,N
1524401295.7,286046991.5,N
1524401315.5,286046989.2,N
1524401335.4,286046989.9,N
1524401355.2,286046987.5,N
1524401375.1,286046987.9,N
1524401376.0,286046987.9,N
1524401395.8,286046986.6,N
1524401415.6,286046985.5,N
1524401435.5,286046984.2,N
1524401455.3,286046985.2,N
1524401475.2,286046982.4,Y
1524401495.9,286046987.4,P
1524401515.7,286046989.7,P
1524401535.6,286046989.4,P
1524401555.4,286046989.2,Y
1524401575.3,286046998.9,P
1524401595.1,286046999.6,N
1524401596.0,286046999.6,N
1524401615.8,286046999.3,N
1524401635.7,286046999.6,N
1524401655.5,286046996.5,N
1524401675.3,286046996.6,N
1524401695.2,286046997.4,N
1524401715.0,286046997.4,N
1524401715.9,286046997.4,N
1524401735.8,286046995.1,N
1524401755.6,286046995.8,N
1524401775.4,286046996.1,N
1524401795.3,286046993.7,N
1524401815.1,286046994.2,N
1524401835.8,286046993.5,N
1524401855.7,286046994.6,N
1524401875.5,286046993.5,N
1524401895.4,286046993.6,N
1524401915.2,286046994.7,N
1524401935.0,286046991.7,Y
1524401935.9,286046991.7,P
1524401955.8,286046997.4,N
1524401975.6,286046996.3,N
1524401995.4,286046993.7,N
